Вернуться в каталог

COSMOS 1478

АктивенВоенныеLEO
NORAD 14176·PAYLOAD·🇷🇺 Russia

Запущен Jul 6, 1983 с Plesetsk Cosmodrome

Loading…

Ближайшие Пролёты (ближайшие 24 часа)

TLE

СвежийSource: Space-Track

Эпоха: Sep 14, 2026, 01:33 UTC

1 14176U 83069F   26257.06491532 -.00000013  00000-0  18618-4 0  9990
2 14176  74.0231 281.9502 0011742  30.6003 358.2649 12.48264917968231

Отслеживайте COSMOS 1478 в реальном времени с AllMySat

Download on the App Store